Regional Weather Roundup
Issued by NWS Grand Forks, ND

Home | Current Version | Previous Version | Graphics & Text | Print | Product List | Glossary On
Versions: 1 2 3 4 5 6 7 8 9 10 11 12 13 14 15 16 17 18 19 20 21 22 23 24 25 26 27 28 29 30 31 32 33 34 35 36 37 38 39 40 41 42 43 44 45 46 47 48 49 50
000
ASUS43 KFGF 300110
RWRFGF
PRAIRIE TO PINES  WEATHER ROUNDUP
NATIONAL WEATHER SERVICE EASTERN NORTH DAKOTA/GRAND FORKS ND
800 PM CDT SUN MAR 29 2015

 **SATELLITE DATA USED TO AUGMENT SKY COVER AT AUTOMATED STATIONS**
 *****  WEATHER ACROSS EASTERN NORTH DAKOTA  *****

CITY           SKY/WX    TMP DP  RH WIND       PRES   REMARKS
GRAND FORKS    PTCLDY    48  31  51 W10       29.88S
GRAND FRKS AFB NOT AVBL
GRAND FRKS NWS   N/A     46 N/A N/A NW7         N/A
DEVILS LAKE    PTCLDY    46  32  57 N8        29.91R
FARGO          CLOUDY    50  28  42 NW9       29.91S
WAHPETON ARPT  PTCLDY    45  28  53 W6        29.94S
$$

 ***** WEATHER ACROSS CENTRAL AND WESTERN NORTH DAKOTA  *****

CITY           SKY/WX    TMP DP  RH WIND       PRES   REMARKS
BISMARCK       CLEAR     55  27  34 NW13      29.97S
MINOT          CLEAR     48  31  51 NW8       29.92S
JAMESTOWN      PTCLDY    50  29  44 W9        29.93S
MINOT AFB      CLEAR     50  37  59 N6        29.91S
GARRISON         N/A     53  33  46 NW9       29.93F
WILLISTON      MOCLDY    53  35  50 SW6       29.91F
DICKINSON      PTCLDY    50  30  46 W3        29.95F
HETTINGER      MOCLDY    52  30  43 W5        30.00F
$$

 *****  OTHER AIRPORT OBSERVATIONS IN OUR AREA  *****

CITY           SKY/WX    TMP DP  RH WIND       PRES   REMARKS
WALHALLA         N/A     46  32  57 W8        29.87S
GRAFTON AIRPOR NOT AVBL
VALLEY CITY AR FAIR      46  28  49 W9        29.92F
CANDO          NOT AVBL
CAVALIER APRT  FAIR      46  30  53 NW8       29.87S
GWINNER        CLEAR     50  32  50 W10         N/A
ROLLA          FAIR      43  36  75 NW7       29.91S
 ***** THE ABOVE OBSERVATIONS ARE NON NWS ARE NOT QUALITY
       CONTROLLED AND MAY MIS-REPORT RAIN FOR SNOW...
$$

  *****  WEATHER ACROSS NORTHERN MINNESOTA  *****

CITY           SKY/WX    TMP DP  RH WIND       PRES   REMARKS
FLAG ISLAND    PTCLDY    41  27  56 W9        29.78S
WARROAD        CLEAR     45  28  53 W7        29.82S
ROSEAU         CLEAR     45  28  53 W8        29.83R
HALLOCK        CLEAR     45  34  65 W7        29.85S
THF RVR FALLS  CLEAR     45  30  57 W7        29.87S
BAUDETTE       PTCLDY    41  28  60 W8        29.79S
WASKISH        CLEAR     41  28  60 W7        29.82S
CROOKSTON      PTCLDY    43  28  56 NW8       29.89S
STEPHEN NDAWN    N/A     46  34  61 NW8         N/A
GREENBUSH NDAW   N/A     39  34  81 NW3         N/A
$$
  *****  WEATHER ACROSS CENTRAL AND WEST MINNESOTA  *****

CITY           SKY/WX    TMP DP  RH WIND       PRES   REMARKS
FOSSTON        PTCLDY    39  28  65 CALM      29.89S
BEMIDJI        CLEAR     42  25  52 NW12      29.86R
PARK RAPIDS    PTCLDY    43  25  49 NW12      29.88R
ELBOW LAKE     MOCLDY    45  28  52 NW7       29.93S
WADENA         PTCLDY    43  27  52 NW8       29.90S
DETROIT LAKES  PTCLDY    45  32  61 NW6       29.92R
MOORHEAD       MOCLDY    50  27  40 NW10      29.93R
FERGUS FALLS   CLOUDY    45  28  53 N7        29.94S
MORRIS MN      PTCLDY    46  28  49 NW9       29.94S
STAPLES        PTCLDY    43  21  42 NW10      29.90R
$$
  *****  WEATHER ELSEWHERE ACROSS MINNESOTA  *****

CITY           SKY/WX    TMP DP  RH WIND       PRES   REMARKS
DULUTH         PTCLDY    42  25  50 NW13G22   29.77R
INTRNTL FALLS  CLEAR     40  24  53 NW10      29.78R
ELY            MOCLDY    37  27  65 W10G20    29.74R
CLOQUET        CLEAR     43  21  42 NW9       29.79R
WHEATON        CLEAR     45  27  49 W5        29.98R
BRAINERD       CLEAR     46  24  42 NW15      29.88R
HIBBING        CLEAR     38  25  59 NW14      29.80R
ALEXANDRIA     CLEAR     44  26  49 NW7       29.93R
SAINT CLOUD    CLEAR     46  26  45 NW14      29.89R
MINNEAPOLIS    PTCLDY    48  26  42 NW14G25   29.90R
$$

  *****  WEATHER ACROSS SOUTH DAKOTA  *****

CITY           SKY/WX    TMP DP  RH WIND       PRES   REMARKS
SIOUX FALLS    CLEAR     49  20  31 NW8       30.04R
BROOKINGS      NOT AVBL
WATERTOWN      CLEAR     46  26  45 NW6       30.00R
HURON          CLEAR     49  20  31 NW9       30.02S
SISSETON         N/A     47  29  49 NW8       29.96R
ABERDEEN       CLEAR     50  23  34 NW8       30.00S
MITCHELL       CLEAR     51  21  30 NW7       30.05S
PIERRE         CLEAR     55  28  35 NW6       30.02S
MOBRIDGE       CLEAR     53  30  41 NW3       29.97S
RAPID CITY     CLOUDY    57  28  33 NE3       30.05F
$$

  *****  SOME WEATHER IN NEARBY STATES *****

CITY           SKY/WX    TMP DP  RH WIND       PRES   REMARKS
GLASGOW MT     PTCLDY    58  30  34 W15       29.92S
GREAT FALLS MT CLOUDY    55  28  35 SW18G28   30.01S
CHEYENNE WY    MOCLDY    54  20  26 SW14      30.17R
SCOTTSBLUFF NE PTCLDY    59  24  26 S7        30.11R
OMAHA NE       PTCLDY    52  23  32 NW9       30.08R
DES MOINES IA  PTCLDY    56  20  24 NW9       30.01R
DAVENPORT IA   CLEAR     48  35  60 NW16      29.91R
CHICAGO IL     CLOUDY    46  37  71 W18G33    29.82R
EAU CLAIRE WI  CLEAR     46  25  43 NW16G26   29.81R
LA CROSSE WI   CLEAR     50  28  42 NW18G28   29.82R
$$

  *****  SOME NATIONAL WEATHER *****

CITY           SKY/WX    TMP DP  RH WIND       PRES   REMARKS
LA GUARDIA NY  PTCLDY    38  24  57 S9        30.15F
RALEIGH NC     PTCLDY    43  18  36 S5        30.25F
ATLANTA GA     CLOUDY    59  26  28 S9        30.24R
NEW ORLEANS LA PTCLDY    69  61  75 S10       30.21R
OKLAHOMA CITY  PTCLDY    67  41  38 NE8       30.10R
ALBUQUERQUE NM CLOUDY    74  15  10 SE10      30.13S
SALT LAKE CITY PTCLDY    64  11  12 NW12      30.20S
LOS ANGELES CA MOSUNNY   64  57  78 W9        29.98S
BOISE ID       SUNNY     66  24  20 NW7       30.16F
SEATTLE WA     CLOUDY    59  45  59 SW5       30.20F
$$

*** WEATHER ACROSS MANITOBA...SASKATCHEWAN AND ONTARIO ***
                ***ONTARIO***

CITY           SKY/WX    TMP DP  RH WIND       PRES   REMARKS
GERALDTON      NOT AVBL
THUNDER BAY    PTCLDY    36  30  80 W10G17    29.62R
SIOUX LOOKOUT  CLOUDY    36  25  64 N5        29.67R
TORONTO        FLURRIES  39  23  52 SW32G44   29.86S
BIG TROUT LK   FLURRIES  16  12  86 N10G23    29.70R WCI   3
PICKLE LAKE    FLURRIES  28  21  74 NW13G30   29.61R WCI  18
DRYDEN         CLOUDY    39  28  65 W10       29.70R
KENORA         PTCLDY    41  27  56 W7        29.75S
$$
                *** MANITOBA***

CITY           SKY/WX    TMP DP  RH WIND       PRES   REMARKS
BRANDON        PTCLDY    41  34  75 W9        29.90R
DAUPHIN        CLEAR     41  30  65 W13       29.85R
ISLAND LAKE    CLOUDY    19  16  86 N12       29.84R WCI   7
PILOT MOUND      N/A     41  30  65 NW9         N/A
THE PAS        PTCLDY    45  23  42 W6        29.78S
THOMPSON       PTCLDY    23  18  80 VRB2      29.84R
WINNIPEG       PTCLDY    41  28  60 NW10      29.84S
LYNN LAKE      CLEAR     32  23  69 SE7       29.75S
CHURCHILL      FLURRIES   5   1  85 N8        29.97R WCI  -8
GILLAM         CLEAR     10  -2  56 E6        29.90R WCI   1
$$
                ***SASKATCHEWAN***

CITY           SKY/WX    TMP DP  RH WIND       PRES   REMARKS
ESTEVAN        CLOUDY    50  34  53 NE7       29.89F
KINDERSLEY     MOCLDY    54  37  54 E3        29.76F
LLOYDMINSTER   MOCLDY    46  36  66 S9        29.74F
PRINCE ALBERT  CLOUDY    46  32  57 SW3       29.80S
REGINA         MOCLDY    50  37  62 SE8       29.85F
YORKTON        CLEAR     45  32  61 SW6       29.86F
N. BATTLEFORD  CLOUDY    48  39  71 CALM      29.79F
LA RONGE       MOCLDY    43  23  45 S5        29.75F
SASKATOON      CLOUDY    50  37  62 SW2       29.81F
SWIFT CURRENT  CLEAR     54  34  47 SW12      29.81F
$$
NOTE: THESE ARE AUTOMATED STATIONS WITH LIMITED QUALITY CONTROL
      "FAIR" INDICATES FEW OR NO CLOUDS BELOW 12,000 FEET WITH NO
      SIGNIFICANT WEATHER AND/OR OBSTRUCTIONS TO VISIBILITY.
      SKY/WX - SKY CONDITION AND SIGNIFICANT WEATHER.
      TMP - AIR TEMPERATURE.    DP   - DEWPOINT TEMPERATURE.
      RH  - RELATIVE HUMIDITY.  PRES - PRESSURE.
      HX  - HEAT INDEX.         WCI  - WIND CHILL INDEX.
$


USA.gov is the U.S. government's official web portal to all federal, state and local government web resources and services.